Location: Seven Kings
(51.5667°N, 0.1000°E)
Time: 14:06:13
(UTC+00:00)

Cosmos 2227 Rocket - Pass Details

Date: 29 October 2020
Orbit: 839 x 845 km, 71.0° (Epoch: 29 November)

Event Time Altitude Azimuth Distance (km) Brightness Sun altitude
Rises 18:33:04 0° 325° (NW) 3,409 5.9 -18.5°
Reaches altitude 10° 18:35:39 10° 318° (NW) 2,471 5.2 -18.9°
Maximum altitude 18:40:52 39° 252° (WSW) 1,244 3.6 -19.7°
Drops below altitude 10° 18:46:03 10° 185° (S) 2,459 4.6 -20.5°
Sets 18:48:37 0° 177° (S) 3,390 5.3 -20.9°
